Flag for China Weather past 2 weeks in Shantou, Guangdong, China

Now
55 °F

Passing clouds.


Feels Like: 54 °F
Forecast: 52 / 67 °F
Wind: 6 mph from Northeast

Location: Shantou Airport

Current Time: Feb 2, 2015 at 2:30:47 AM

Latest Report: Feb 2, 2015 at 2:00 AM


Visibility: 4 mi

Pressure: 30.33 "Hg

Humidity: 82%

Dew point: 50 °F

Location of ShantouLocation

Historic Weather in Shantou — Graph

°F

Shantou temperature yesterday

Maximum temperature yesterday: 64 °F (at 3:00 PM)
Minimum temperature yesterday: 55 °F (at 12:00 AM)
Average temperature yesterday: 58 °F

Past Weeks' High & Low Weather Summary

 TemperatureHumidityPressure
High73 °F (Jan 21, 3:00 PM)100% (Jan 18, 7:00 AM)30.39 "Hg (Jan 18, 7:00 AM)
Low45 °F (Jan 20, 6:00 AM)19% (Jan 22, 2:00 PM)30.01 "Hg (Jan 26, 3:00 PM)
Average59 °F75%30.17 "Hg
* Reported Jan 18 1:00 AM — Feb 2 1:00 AM, Shantou, Weather by CustomWeather, © 2014

Note: Actual official high and low records may vary slightly from our data, if they occured in-between our weather recording intervals... More about our weather records

Advertising

Shantou weather history for previous 24 hours

 ConditionsComfort  
Time TempWeatherWind HumidityBarometerVisibility
1:00 AM
Feb 2
54 °FPassing clouds.3 mph94%30.33 "Hg4 mi
12:00 AM55 °FPassing clouds.8 mph82%30.33 "Hg4 mi
11:00 PM
Feb 1
55 °FClear.6 mph88%30.33 "Hg4 mi
10:00 PM55 °FClear.6 mph82%30.33 "Hg4 mi
9:00 PM57 °FClear.8 mph77%30.33 "Hg4 mi
8:00 PM57 °FClear.8 mph77%30.33 "Hg4 mi
7:00 PM59 °FClear.8 mph72%30.30 "Hg4 mi
6:00 PM61 °FPassing clouds.6 mph63%30.27 "Hg4 mi
5:00 PM64 °FPassing clouds.6 mph56%30.27 "Hg4 mi
4:00 PM64 °FPassing clouds.3 mph52%30.24 "Hg4 mi
3:00 PM64 °FScattered clouds.3 mph52%30.27 "Hg4 mi
2:00 PM63 °FPartly sunny.3 mph56%30.30 "Hg4 mi
1:00 PM63 °FPartly sunny.3 mph56%30.33 "Hg3 mi
12:00 PM61 °FPartly sunny.3 mph59%30.36 "Hg3 mi
11:00 AM61 °FPartly sunny.3 mph59%30.39 "Hg3 mi
10:00 AM57 °FHaze.6 mph63%30.39 "Hg3 mi
9:00 AM55 °FOvercast.6 mph67%30.39 "Hg3 mi
8:00 AM55 °FOvercast.6 mph72%30.39 "Hg3 mi
7:00 AM55 °FOvercast.6 mph72%30.36 "Hg3 mi
6:00 AM55 °FPassing clouds.6 mph72%30.33 "Hg4 mi
5:00 AM55 °FPassing clouds.6 mph72%30.33 "Hg4 mi
4:00 AM55 °FPassing clouds.6 mph72%30.33 "Hg4 mi
3:00 AM55 °FPassing clouds.6 mph72%30.33 "Hg4 mi
2:00 AM55 °FPassing clouds.6 mph72%30.33 "Hg4 mi
Weather by CustomWeather, © 2014

See weather overviewHow to use our weather pages